TimeMDT,TemperatureF,Dew PointF,Humidity,Sea Level PressureIn,VisibilityMPH,Wind Direction,Wind SpeedMPH,Gust SpeedMPH,PrecipitationIn,Events,Conditions,WindDirDegrees,DateUTC
12:55 AM,43.0,42.1,97,30.01,10.0,Calm,Calm,-,N/A,,Overcast,0,2012-11-02 06:55:00
1:55 AM,42.1,41.0,96,30.03,10.0,SW,3.5,-,N/A,,Overcast,220,2012-11-02 07:55:00
2:55 AM,42.1,41.0,96,30.05,10.0,SSW,3.5,-,N/A,,Overcast,210,2012-11-02 08:55:00
3:55 AM,42.1,41.0,96,30.06,10.0,Calm,Calm,-,N/A,,Overcast,0,2012-11-02 09:55:00
4:55 AM,42.1,41.0,96,30.06,10.0,Calm,Calm,-,N/A,,Overcast,0,2012-11-02 10:55:00
5:55 AM,43.0,41.0,93,30.08,10.0,WSW,3.5,-,N/A,,Overcast,240,2012-11-02 11:55:00
6:55 AM,43.0,41.0,93,30.09,10.0,Calm,Calm,-,N/A,,Overcast,0,2012-11-02 12:55:00
7:55 AM,44.1,41.0,89,30.11,10.0,South,3.5,-,N/A,,Overcast,190,2012-11-02 13:55:00
8:55 AM,44.1,41.0,89,30.12,10.0,South,4.6,-,N/A,,Overcast,190,2012-11-02 14:55:00
9:55 AM,45.0,41.0,86,30.14,10.0,South,6.9,-,N/A,,Overcast,180,2012-11-02 15:55:00
10:55 AM,46.0,41.0,83,30.15,10.0,SSE,5.8,-,N/A,,Overcast,160,2012-11-02 16:55:00
11:55 AM,48.0,42.1,80,30.17,10.0,South,4.6,-,N/A,,Overcast,190,2012-11-02 17:55:00
12:55 PM,48.0,41.0,77,30.16,10.0,South,9.2,-,N/A,,Overcast,170,2012-11-02 18:55:00
1:55 PM,48.9,41.0,74,30.15,10.0,SSE,9.2,-,N/A,,Overcast,150,2012-11-02 19:55:00
2:55 PM,48.9,41.0,74,30.14,10.0,South,8.1,-,N/A,,Overcast,170,2012-11-02 20:55:00
3:55 PM,48.9,41.0,74,30.14,10.0,SSE,8.1,-,N/A,,Overcast,150,2012-11-02 21:55:00
4:55 PM,48.0,39.9,74,30.14,10.0,SSE,3.5,-,N/A,,Overcast,150,2012-11-02 22:55:00
5:55 PM,46.9,39.9,77,30.14,10.0,Calm,Calm,-,N/A,,Overcast,0,2012-11-02 23:55:00
6:55 PM,43.0,39.9,89,30.14,10.0,Calm,Calm,-,N/A,,Overcast,0,2012-11-03 00:55:00
7:55 PM,43.0,41.0,93,30.15,10.0,Calm,Calm,-,N/A,,Overcast,0,2012-11-03 01:55:00
8:55 PM,42.1,41.0,96,30.14,10.0,Calm,Calm,-,N/A,,Overcast,0,2012-11-03 02:55:00
9:55 PM,39.0,39.0,100,30.14,5.0,Calm,Calm,-,N/A,,Partly Cloudy,0,2012-11-03 03:55:00
10:50 PM,37.4,35.6,93,30.10,10.0,Calm,Calm,-,N/A,,Partly Cloudy,0,2012-11-03 04:50:00
10:55 PM,36.0,36.0,100,30.15,10.0,Calm,Calm,-,N/A,,Partly Cloudy,0,2012-11-03 04:55:00
11:55 PM,33.1,33.1,100,30.14,10.0,Calm,Calm,-,N/A,,Partly Cloudy,0,2012-11-03 05:55:00